This is the latest recevied weather packets stored in our database for station/object OH2EGI-2. If no packets are shown the sender has not sent any weather packets the latest 10 day(s).
| Time | Temp. | Humidity | Pressure | Rain* | Wind** | Luminosity | Snow |
|---|---|---|---|---|---|---|---|
| 1778056292 | 14.44° C | 33% | 1004.8 hPa | 0 mm | - | - | - |
| 1778055992 | 13.89° C | 33% | 1004.8 hPa | 0 mm | - | - | - |
| 1778055692 | 12.78° C | 33% | 1004.8 hPa | 0 mm | - | - | - |
| 1778055392 | 12.78° C | 34% | 1004.8 hPa | 0 mm | - | - | - |
| 1778055092 | 13.33° C | 33% | 1004.8 hPa | 0 mm | - | - | - |
| 1778054792 | 14.44° C | 33% | 1004.7 hPa | 0 mm | - | - | - |
| 1778054492 | 14.44° C | 33% | 1004.8 hPa | 0 mm | - | - | - |
| 1778054192 | 15° C | 32% | 1004.8 hPa | 0 mm | - | - | - |
| 1778053892 | 15° C | 34% | 1004.6 hPa | 0 mm | - | - | - |
| 1778053592 | 14.44° C | 35% | 1004.6 hPa | 0 mm | - | - | - |
| 1778053292 | 14.44° C | 35% | 1004.5 hPa | 0 mm | - | - | - |
| 1778052992 | 14.44° C | 35% | 1004.7 hPa | 0 mm | - | - | - |
| 1778052692 | 14.44° C | 34% | 1004.6 hPa | 0 mm | - | - | - |
| 1778052392 | 14.44° C | 36% | 1004.4 hPa | 0 mm | - | - | - |
| 1778052092 | 14.44° C | 35% | 1004.4 hPa | 0 mm | - | - | - |
| 1778051792 | 14.44° C | 35% | 1004.4 hPa | 0 mm | - | - | - |
| 1778051492 | 15° C | 36% | 1004.5 hPa | 0 mm | - | - | - |
| 1778051192 | 15° C | 35% | 1004.3 hPa | 0 mm | - | - | - |
| 1778050892 | 15.56° C | 35% | 1004.4 hPa | 0 mm | - | - | - |
| 1778050592 | 15.56° C | 38% | 1004.4 hPa | 0 mm | - | - | - |
| 1778050293 | 15.56° C | 38% | 1004.3 hPa | 0 mm | - | - | - |
| 1778049992 | 15° C | 38% | 1004.4 hPa | 0 mm | - | - | - |
| 1778049692 | 15° C | 38% | 1004.4 hPa | 0 mm | - | - | - |
| 1778049393 | 15° C | 38% | 1004.3 hPa | 0 mm | - | - | - |
| 1778049092 | 15° C | 39% | 1004.3 hPa | 0 mm | - | - | - |
* Rain latest hour (hover to see other rain measurements)
** Current wind speed in m/s (hover to see current wind gust speed)